Temp
62 62 62 62 62 62 61 61 61 61 61 61 61 61 60 60 59 58 57 57 58 58 57 57 56 56 56 56 57 57 57 57 57 57 57 57 57 56 56 55 55 55 55 54 54 53 53 53 53 54 54 53 54 54 55 56 57 58 58 58 58 58 58 57 57 58 58 58 58
62 62 61 61 61 61 60 59 59 59 60 61 61 61 60 60 59 57 56 57 57 57 56 56 55 55 55 55 56 57 57 56 56 56 56 56 55 55 55 55 54 54 54 53 53 53 53 52 53 53 53 53 53 53 54 53 54 55 56 56 56 56 56 56 57 57 57 57 58
61 61 61 61 61 60 60 58 58 58 59 61 61 60 60 60 59 57 56 56 56 56 55 55 54 54 54 54 54 55 55 55 55 55 55 54 54 54 54 54 53 53 53 53 52 52 52 52 52 53 53 52 52 51 51 50 51 52 53 53 53 53 54 54 54 54 54 55 55
61 61 61 61 61 61 60 57 57 58 59 59 59 59 59 58 57 57 56 56 56 56 55 55 55 54 54 54 54 54 54 55 55 55 54 53 53 53 53 53 53 52 52 52 52 51 51 51 52 52 52 51 50 50 49 48 49 49 49 49 49 50 50 51 50 50 50 51 51
61 61 61 61 61 61 60 56 57 58 58 58 58 58 58 57 57 56 56 56 56 56 56 56 55 55 54 53 53 53 54 54 55 54 53 52 52 52 52 52 52 51 51 51 50 50 50 51 51 51 50 49 49 49 48 47 47 47 47 47 48 48 47 48 47 47 47 48 47
60 60 60 61 61 61 59 57 57 57 57 57 58 57 57 56 56 56 56 56 56 56 57 57 56 55 54 53 53 53 53 53 53 53 52 51 51 51 51 50 50 50 50 50 50 50 50 51 51 51 50 50 49 48 48 47 47 47 47 47 47 47 47 47 46 46 46 46 46
59 58 58 59 60 60 59 57 57 57 57 57 57 56 56 56 56 56 56 56 56 56 57 57 56 56 55 54 54 53 53 52 52 51 51 51 50 50 50 50 50 50 50 50 50 50 50 51 51 51 50 50 49 47 47 47 47 47 47 47 47 47 47 47 46 46 46 46 46
57 57 56 57 58 58 58 57 57 57 57 57 56 56 56 56 56 56 55 55 55 55 55 56 55 55 55 54 53 52 52 51 51 50 50 50 50 50 50 50 49 49 49 50 49 49 49 50 50 49 49 48 48 47 46 46 46 47 47 47 46 46 46 46 46 46 46 46 46
56 56 56 56 56 56 56 56 56 56 56 56 56 55 55 56 55 55 55 54 54 54 54 54 54 53 53 52 52 51 50 50 49 49 48 49 49 49 48 48 48 47 47 47 47 48 48 48 48 47 47 47 46 46 45 45 46 46 46 46 46 46 46 46 46 46 46 47 47
56 56 55 55 55 55 55 55 55 54 54 54 54 54 54 54 54 54 53 53 53 53 53 53 52 52 51 51 50 50 49 49 48 48 48 48 48 47 46 46 46 45 45 45 45 45 46 46 45 44 44 44 44 44 44 44 44 44 45 45 46 46 46 46 46 46 47 47 47
55 55 55 54 54 54 54 54 53 53 52 52 52 52 52 52 52 52 52 52 52 52 52 52 52 51 51 50 50 49 49 48 48 47 47 46 46 45 44 44 44 43 43 43 43 43 44 44 43 42 42 42 42 42 42 42 42 44 45 45 46 46 46 44 44 45 45 46 46
54 54 54 53 54 54 53 53 52 52 51 51 51 51 51 51 51 51 51 51 51 50 50 51 51 51 50 50 49 49 48 48 47 47 46 44 43 43 43 43 42 42 41 42 42 43 43 43 43 42 42 41 41 42 43 42 43 44 45 46 46 47 46 45 43 44 45 45 46
53 53 53 53 53 53 52 52 51 51 50 50 50 50 50 50 51 51 50 50 49 49 49 50 50 50 49 49 48 48 47 47 46 45 44 43 42 42 42 41 41 41 41 41 42 42 42 43 43 43 43 43 42 43 45 45 44 45 46 46 47 47 46 46 45 45 45 46 46
52 52 52 52 52 52 52 51 51 50 50 50 50 50 50 50 50 50 50 49 49 49 49 49 49 49 48 48 47 47 46 46 45 44 43 42 41 41 41 41 40 40 40 41 41 42 42 43 44 44 44 44 44 45 45 45 46 46 46 46 46 46 46 46 46 46 46 46 47
52 52 52 52 52 51 51 51 50 50 50 49 50 50 50 50 50 50 50 49 48 48 48 48 47 47 47 47 46 46 45 44 44 43 42 41 41 40 40 40 39 39 39 40 41 42 42 43 43 44 44 44 44 44 44 44 45 46 46 46 46 46 46 46 46 46 46 46 47
51 51 52 52 51 51 51 51 50 50 50 49 50 50 50 49 50 49 49 48 48 47 47 47 46 46 46 46 45 45 45 44 43 43 42 41 40 40 40 39 39 39 40 41 41 42 42 42 42 43 43 43 43 43 43 44 44 45 45 46 46 46 46 46 46 46 46 46 46
51 51 51 51 51 51 51 50 50 50 49 49 49 49 49 49 49 49 48 48 47 46 45 45 45 45 45 45 45 45 44 44 43 42 41 41 40 39 39 39 39 39 40 40 40 40 40 41 41 42 42 42 42 43 43 44 45 45 45 45 45 45 45 45 45 45 45 45 45
51 51 51 51 51 50 50 50 50 49 49 49 48 48 48 48 48 47 47 46 46 45 44 43 43 43 43 42 43 43 43 42 41 41 40 39 39 38 38 38 38 38 39 39 39 38 38 39 40 41 41 41 42 43 43 44 44 44 44 44 44 44 44 45 44 44 44 44 45
50 50 50 50 50 50 50 49 49 49 48 48 48 47 47 47 46 46 45 45 44 44 43 42 42 41 41 41 41 41 41 40 39 39 38 38 38 38 37 38 38 38 39 38 38 38 38 39 39 40 40 40 41 42 43 43 43 43 43 44 44 44 44 44 43 43 43 43 44
50 50 50 50 50 49 49 48 48 48 47 47 46 46 45 45 45 45 44 43 43 43 43 42 41 40 40 40 40 40 40 39 38 38 37 37 37 37 37 38 38 37 37 37 37 37 37 37 38 39 39 40 41 41 42 43 42 42 43 43 43 43 43 43 43 42 42 42 43
49 49 49 49 48 48 47 47 47 46 46 45 45 44 44 43 43 43 43 42 42 42 42 41 41 40 40 39 39 39 39 39 38 37 37 37 37 38 38 37 37 36 36 36 36 36 37 37 37 38 39 40 41 41 41 41 41 42 42 42 42 42 42 42 42 42 42 42 42
47 48 48 48 47 46 46 45 45 44 44 43 43 42 42 41 41 41 41 41 41 41 41 40 40 40 40 39 39 39 38 38 37 37 37 37 38 39 39 37 37 36 36 37 37 37 37 36 37 37 38 39 40 41 41 41 41 41 41 41 41 41 41 41 41 41 41 41 41
46 46 46 46 46 45 45 44 43 43 42 42 41 41 41 41 40 40 40 40 40 40 39 39 39 39 39 39 39 38 38 38 37 36 36 36 37 37 37 37 36 36 36 37 37 37 36 37 37 37 38 38 39 39 40 40 40 40 40 40 40 40 40 41 41 40 40 41 40
44 45 45 45 44 44 44 43 43 42 41 41 41 41 40 40 40 40 39 39 39 39 39 39 39 39 39 39 39 39 39 38 37 37 36 36 36 36 36 35 34 34 35 36 37 38 39 40 40 39 39 38 38 38 38 38 39 40 40 40 39 39 39 40 40 40 40 40 40
44 44 44 44 44 43 43 43 42 42 41 41 40 40 40 40 40 39 39 38 38 39 40 40 39 39 38 39 38 38 38 37 37 37 37 37 37 36 36 35 34 34 35 37 41 43 45 46 44 43 41 40 40 39 39 39 39 38 39 39 39 39 39 40 40 39 39 39 40
43 43 43 43 43 43 43 42 42 41 41 40 40 40 40 39 39 38 38 37 37 37 37 37 37 38 38 38 37 37 37 37 37 37 37 37 37 37 36 36 36 36 37 39 43 46 47 48 48 47 44 41 41 40 40 39 38 38 37 38 39 39 39 38 38 37 38 39 40
43 43 43 43 43 42 42 42 41 41 40 40 40 39 39 40 40 39 38 37 37 36 36 36 37 38 39 38 38 38 38 37 37 37 36 36 36 35 35 35 35 36 38 43 45 47 48 48 49 48 46 42 41 41 40 39 38 38 38 38 39 39 38 38 37 37 37 38 38
42 42 42 42 42 42 41 41 41 40 40 39 40 40 41 43 42 42 41 40 39 38 38 37 37 38 38 37 37 37 36 36 36 36 36 36 35 35 34 34 34 35 39 44 46 47 48 48 49 49 47 44 41 39 39 38 38 38 38 38 38 38 38 38 38 37 37 37 36
42 42 42 42 41 41 41 40 40 40 40 40 42 42 42 43 43 42 42 41 40 39 38 37 37 37 36 35 35 35 35 36 36 35 35 35 34 34 34 35 35 36 39 44 46 47 48 48 48 48 48 46 41 39 39 38 38 38 38 38 37 38 38 38 38 38 37 36 36
42 42 41 41 41 40 40 40 42 43 44 43 43 42 41 41 42 42 42 41 39 38 37 37 37 36 35 35 35 35 36 37 38 37 36 35 36 35 35 34 34 36 39 44 46 47 48 48 48 48 47 47 42 39 38 37 37 37 37 37 37 37 37 38 38 37 36 36 36
41 41 41 41 40 40 40 40 42 44 44 44 43 42 42 41 41 41 41 41 39 38 38 36 36 36 37 37 38 38 38 39 40 40 40 40 40 39 37 35 34 35 38 43 46 47 48 48 48 47 47 45 41 38 36 35 35 35 36 37 37 37 38 38 37 37 36 35 35
40 40 41 40 40 39 39 39 41 42 44 43 43 43 42 42 42 42 41 41 39 38 38 37 37 38 39 40 40 40 40 40 41 41 41 41 40 39 37 36 34 36 39 44 46 47 47 47 47 47 46 44 39 35 33 34 34 35 35 36 37 37 38 37 37 36 36 35 35
39 39 40 40 39 39 38 38 39 41 42 43 43 43 42 42 42 42 41 41 39 38 38 38 39 39 40 40 40 40 40 41 41 42 42 42 41 39 38 37 36 37 40 44 46 46 47 47 47 47 45 43 38 34 33 34 34 35 35 36 37 37 37 36 36 36 36 36 36
39 39 39 39 39 39 40 40 40 41 41 42 42 42 42 42 42 41 41 41 40 40 40 40 40 41 41 41 41 41 41 42 42 41 41 41 41 40 39 38 37 38 41 44 45 46 47 47 47 46 45 42 37 34 33 33 34 35 35 35 36 36 35 35 35 35 35 35 36
38 39 39 39 40 40 41 41 41 41 41 41 42 42 42 42 41 41 41 42 41 41 41 41 41 41 41 42 41 42 42 42 41 41 40 40 40 40 40 39 37 38 41 44 45 46 46 46 46 46 44 39 35 32 31 30 31 32 33 33 35 35 34 34 34 35 35 35 35
38 38 39 39 40 40 41 41 40 40 41 41 41 41 41 41 41 41 42 42 41 41 41 41 42 42 42 42 42 42 41 40 40 40 40 40 40 40 39 39 37 38 40 43 44 46 46 46 46 45 42 36 32 30 28 28 28 30 31 32 33 34 34 34 34 34 34 34 35
37 38 38 39 39 40 40 40 40 41 41 41 41 41 41 41 41 41 41 42 41 41 41 41 41 41 41 41 41 40 39 38 39 40 40 40 40 39 39 38 37 37 39 41 43 45 46 46 46 45 41 33 30 28 28 28 28 29 30 31 32 33 33 33 33 33 34 34 35
37 38 38 39 40 40 41 41 41 41 41 41 41 41 41 41 41 41 41 42 41 41 41 41 41 41 41 40 39 38 38 39 39 40 40 40 39 39 38 37 36 36 37 40 42 44 45 46 46 45 41 34 31 29 29 29 29 29 30 31 32 32 32 32 32 33 33 34 36
39 40 41 41 41 41 41 41 41 41 41 41 41 41 40 41 40 41 41 42 41 41 41 41 40 40 40 40 38 38 38 38 39 39 39 39 39 39 38 37 36 36 37 40 42 43 45 45 46 45 43 38 34 32 32 30 29 29 30 31 32 32 32 32 32 32 33 34 36
41 42 42 42 42 42 41 42 41 41 40 41 41 41 41 40 40 41 41 41 41 41 41 41 40 40 40 40 39 38 37 37 37 37 38 38 38 39 39 38 37 37 37 39 41 42 44 45 45 45 44 40 36 34 33 31 29 29 30 30 31 32 32 33 32 32 32 33 35
42 42 42 43 42 42 42 42 41 39 38 39 40 40 41 40 40 40 40 40 40 40 41 40 40 40 39 40 39 38 37 36 35 35 36 36 37 38 38 37 36 36 36 37 39 41 43 44 45 45 44 42 36 34 33 31 29 29 29 29 29 30 32 33 32 32 32 32 33
MSLP
1013.16 1013.36 1013.44 1013.52 1013.60 1013.68 1013.80 1013.88 1013.80 1013.84 1013.96 1014.24 1014.40 1014.52 1014.68 1014.84 1015.04 1015.16 1015.24 1015.20 1015.24 1015.36 1015.52 1015.68 1015.80 1015.84 1015.84 1015.92 1015.96 1016.00 1016.12 1016.24 1016.32 1016.40 1016.52 1016.64 1016.80 1016.96 1017.12 1017.24 1017.32 1017.44 1017.60 1017.72 1017.84 1017.96 1018.08 1018.20 1018.32 1018.44 1018.52 1018.68 1018.80 1018.88 1018.96 1018.96 1019.00 1019.08 1019.16 1019.24 1019.40 1019.48 1019.56 1019.68 1019.76 1019.76 1019.80 1019.80 1019.84
1013.40 1013.52 1013.60 1013.68 1013.72 1013.80 1013.96 1014.00 1013.96 1014.00 1014.16 1014.44 1014.60 1014.72 1014.84 1015.04 1015.24 1015.44 1015.56 1015.52 1015.48 1015.52 1015.68 1015.92 1015.96 1015.96 1015.96 1016.04 1016.04 1016.08 1016.20 1016.32 1016.40 1016.48 1016.60 1016.68 1016.80 1016.96 1017.08 1017.24 1017.28 1017.40 1017.52 1017.64 1017.76 1017.88 1018.00 1018.08 1018.24 1018.40 1018.52 1018.64 1018.76 1018.88 1018.96 1019.00 1018.96 1019.00 1019.12 1019.20 1019.28 1019.40 1019.48 1019.60 1019.68 1019.68 1019.72 1019.76 1019.80
1013.36 1013.52 1013.64 1013.76 1013.84 1013.92 1013.96 1014.04 1014.04 1014.08 1014.24 1014.44 1014.64 1014.80 1014.96 1015.12 1015.32 1015.56 1015.68 1015.60 1015.52 1015.52 1015.72 1016.00 1016.08 1016.08 1016.08 1016.16 1016.24 1016.24 1016.28 1016.40 1016.48 1016.60 1016.72 1016.84 1016.96 1017.08 1017.20 1017.32 1017.40 1017.48 1017.52 1017.64 1017.68 1017.80 1017.92 1018.00 1018.12 1018.28 1018.44 1018.56 1018.68 1018.84 1018.96 1019.08 1019.00 1019.00 1019.12 1019.24 1019.28 1019.40 1019.48 1019.60 1019.68 1019.72 1019.80 1019.80 1019.84
1013.24 1013.40 1013.56 1013.68 1013.80 1013.84 1013.96 1014.08 1014.16 1014.20 1014.24 1014.48 1014.68 1014.88 1015.00 1015.24 1015.44 1015.68 1015.76 1015.68 1015.60 1015.68 1015.88 1016.08 1016.12 1016.16 1016.16 1016.24 1016.36 1016.40 1016.44 1016.52 1016.56 1016.68 1016.84 1017.00 1017.12 1017.24 1017.32 1017.40 1017.52 1017.60 1017.68 1017.72 1017.76 1017.80 1017.92 1017.96 1018.08 1018.20 1018.40 1018.52 1018.68 1018.84 1019.00 1019.12 1019.08 1019.12 1019.24 1019.32 1019.40 1019.44 1019.52 1019.64 1019.72 1019.80 1019.84 1019.92 1019.96
1013.24 1013.32 1013.40 1013.52 1013.68 1013.80 1014.00 1014.28 1014.40 1014.48 1014.52 1014.68 1014.92 1015.08 1015.16 1015.36 1015.52 1015.68 1015.76 1015.76 1015.84 1016.04 1016.16 1016.20 1016.20 1016.24 1016.28 1016.40 1016.44 1016.52 1016.56 1016.64 1016.68 1016.80 1017.00 1017.20 1017.32 1017.40 1017.44 1017.52 1017.64 1017.72 1017.80 1017.84 1017.88 1017.88 1017.92 1018.00 1018.08 1018.24 1018.40 1018.52 1018.68 1018.88 1019.04 1019.12 1019.16 1019.24 1019.36 1019.44 1019.52 1019.56 1019.60 1019.68 1019.80 1019.84 1019.88 1019.96 1019.96
1013.40 1013.40 1013.40 1013.40 1013.52 1013.76 1014.08 1014.40 1014.52 1014.68 1014.84 1015.00 1015.24 1015.40 1015.48 1015.60 1015.64 1015.68 1015.80 1015.96 1016.20 1016.40 1016.40 1016.36 1016.32 1016.36 1016.44 1016.52 1016.52 1016.64 1016.72 1016.80 1016.88 1017.00 1017.16 1017.32 1017.44 1017.52 1017.60 1017.68 1017.72 1017.80 1017.88 1017.96 1017.96 1018.00 1018.04 1018.08 1018.20 1018.36 1018.52 1018.60 1018.76 1018.96 1019.08 1019.12 1019.24 1019.36 1019.44 1019.52 1019.64 1019.68 1019.72 1019.80 1019.84 1019.92 1019.96 1019.96 1020.00
1013.52 1013.60 1013.60 1013.56 1013.64 1013.84 1014.24 1014.52 1014.68 1014.80 1014.96 1015.16 1015.44 1015.60 1015.68 1015.76 1015.80 1015.84 1015.96 1016.16 1016.52 1016.60 1016.52 1016.48 1016.44 1016.48 1016.56 1016.64 1016.68 1016.76 1016.84 1016.96 1017.08 1017.20 1017.28 1017.40 1017.52 1017.64 1017.68 1017.76 1017.80 1017.88 1017.96 1018.04 1018.08 1018.16 1018.20 1018.24 1018.36 1018.48 1018.60 1018.68 1018.80 1018.96 1019.12 1019.16 1019.24 1019.40 1019.52 1019.64 1019.72 1019.76 1019.76 1019.80 1019.92 1019.96 1020.00 1020.08 1020.08
1013.52 1013.68 1013.72 1013.68 1013.76 1014.00 1014.32 1014.56 1014.72 1014.76 1014.92 1015.24 1015.60 1015.76 1015.80 1015.84 1015.92 1016.08 1016.28 1016.52 1016.72 1016.72 1016.60 1016.52 1016.52 1016.56 1016.64 1016.72 1016.80 1016.92 1016.96 1017.12 1017.24 1017.32 1017.40 1017.52 1017.60 1017.68 1017.76 1017.80 1017.88 1018.00 1018.12 1018.20 1018.28 1018.36 1018.40 1018.40 1018.48 1018.60 1018.68 1018.80 1018.96 1019.12 1019.24 1019.24 1019.28 1019.40 1019.52 1019.68 1019.72 1019.76 1019.80 1019.80 1019.88 1019.96 1020.00 1020.00 1019.96
1013.40 1013.56 1013.68 1013.68 1013.80 1014.04 1014.28 1014.52 1014.72 1014.80 1015.00 1015.36 1015.60 1015.76 1015.84 1015.92 1015.96 1016.24 1016.52 1016.80 1016.80 1016.80 1016.72 1016.68 1016.68 1016.68 1016.72 1016.80 1016.92 1017.00 1017.12 1017.20 1017.32 1017.44 1017.52 1017.60 1017.64 1017.72 1017.80 1017.92 1018.04 1018.20 1018.32 1018.40 1018.44 1018.44 1018.48 1018.52 1018.64 1018.76 1018.88 1019.00 1019.12 1019.24 1019.32 1019.32 1019.40 1019.48 1019.60 1019.72 1019.80 1019.84 1019.88 1019.92 1019.96 1019.96 1019.96 1019.96 1019.88
1013.36 1013.52 1013.64 1013.76 1013.96 1014.08 1014.28 1014.52 1014.80 1015.00 1015.20 1015.40 1015.60 1015.76 1015.88 1015.96 1016.04 1016.24 1016.56 1016.80 1016.80 1016.80 1016.80 1016.84 1016.80 1016.80 1016.80 1016.88 1016.96 1017.08 1017.16 1017.24 1017.40 1017.52 1017.56 1017.60 1017.68 1017.80 1017.96 1018.08 1018.20 1018.36 1018.48 1018.60 1018.64 1018.60 1018.60 1018.68 1018.80 1018.96 1019.08 1019.16 1019.24 1019.40 1019.44 1019.52 1019.56 1019.68 1019.72 1019.80 1019.80 1019.84 1019.88 1019.92 1019.96 1019.96 1019.96 1019.92 1019.84
1013.44 1013.56 1013.68 1013.80 1013.96 1014.08 1014.32 1014.64 1014.96 1015.20 1015.40 1015.56 1015.80 1015.96 1016.04 1016.12 1016.24 1016.40 1016.56 1016.68 1016.72 1016.80 1016.92 1016.96 1016.92 1016.84 1016.84 1016.96 1017.04 1017.12 1017.20 1017.28 1017.40 1017.52 1017.56 1017.68 1017.76 1017.92 1018.08 1018.24 1018.40 1018.52 1018.64 1018.76 1018.80 1018.76 1018.76 1018.80 1018.96 1019.12 1019.24 1019.28 1019.40 1019.48 1019.56 1019.60 1019.68 1019.72 1019.76 1019.80 1019.80 1019.84 1019.88 1019.92 1019.96 1019.96 1019.92 1019.92 1019.92
1013.64 1013.68 1013.80 1013.88 1013.96 1014.08 1014.36 1014.72 1015.08 1015.32 1015.52 1015.76 1015.96 1016.12 1016.32 1016.44 1016.48 1016.52 1016.56 1016.68 1016.80 1016.96 1017.12 1017.12 1017.00 1016.88 1016.84 1016.96 1017.00 1017.12 1017.20 1017.32 1017.40 1017.52 1017.64 1017.80 1017.96 1018.08 1018.24 1018.40 1018.52 1018.64 1018.76 1018.84 1018.84 1018.80 1018.84 1018.88 1019.00 1019.12 1019.24 1019.32 1019.40 1019.52 1019.56 1019.60 1019.64 1019.64 1019.68 1019.68 1019.68 1019.68 1019.76 1019.80 1019.84 1019.84 1019.88 1019.92 1019.92
1013.80 1013.88 1013.96 1013.96 1014.04 1014.16 1014.44 1014.80 1015.12 1015.36 1015.56 1015.80 1016.04 1016.28 1016.52 1016.68 1016.72 1016.72 1016.80 1016.96 1017.16 1017.36 1017.44 1017.40 1017.12 1016.96 1016.88 1016.96 1017.04 1017.12 1017.24 1017.32 1017.48 1017.64 1017.80 1018.00 1018.12 1018.24 1018.40 1018.48 1018.60 1018.68 1018.80 1018.88 1018.84 1018.84 1018.88 1018.96 1019.04 1019.12 1019.20 1019.32 1019.40 1019.44 1019.48 1019.52 1019.52 1019.52 1019.56 1019.56 1019.60 1019.64 1019.72 1019.76 1019.80 1019.80 1019.84 1019.88 1019.88
1013.92 1013.96 1014.04 1014.08 1014.16 1014.36 1014.60 1014.84 1015.12 1015.36 1015.64 1015.92 1016.20 1016.40 1016.64 1016.80 1016.92 1016.96 1017.12 1017.28 1017.52 1017.68 1017.76 1017.68 1017.36 1017.12 1017.00 1017.04 1017.04 1017.12 1017.24 1017.40 1017.60 1017.88 1018.12 1018.28 1018.28 1018.32 1018.40 1018.52 1018.64 1018.76 1018.84 1018.88 1018.88 1018.88 1018.92 1018.96 1019.04 1019.12 1019.20 1019.28 1019.36 1019.40 1019.40 1019.44 1019.48 1019.52 1019.60 1019.68 1019.68 1019.68 1019.76 1019.80 1019.80 1019.80 1019.84 1019.88 1019.92
1013.96 1014.04 1014.08 1014.20 1014.36 1014.52 1014.72 1014.88 1015.12 1015.44 1015.80 1016.08 1016.36 1016.52 1016.72 1016.96 1017.12 1017.20 1017.32 1017.52 1017.68 1017.84 1017.92 1017.80 1017.56 1017.32 1017.20 1017.16 1017.16 1017.20 1017.24 1017.40 1017.60 1017.88 1018.24 1018.48 1018.52 1018.44 1018.44 1018.56 1018.68 1018.84 1018.92 1018.96 1018.96 1018.96 1018.96 1019.00 1019.04 1019.12 1019.20 1019.28 1019.36 1019.40 1019.44 1019.52 1019.52 1019.60 1019.68 1019.72 1019.76 1019.76 1019.80 1019.80 1019.80 1019.84 1019.84 1019.88 1019.88
1014.04 1014.12 1014.24 1014.36 1014.52 1014.68 1014.80 1014.96 1015.20 1015.56 1015.96 1016.28 1016.48 1016.68 1016.92 1017.12 1017.24 1017.36 1017.40 1017.56 1017.76 1017.92 1017.96 1017.88 1017.64 1017.44 1017.40 1017.40 1017.44 1017.40 1017.36 1017.32 1017.40 1017.68 1018.12 1018.56 1018.76 1018.76 1018.68 1018.72 1018.80 1018.92 1018.96 1019.00 1019.04 1019.04 1019.04 1019.04 1019.12 1019.16 1019.24 1019.28 1019.36 1019.44 1019.52 1019.56 1019.64 1019.68 1019.72 1019.76 1019.80 1019.80 1019.80 1019.84 1019.84 1019.88 1019.88 1019.88 1019.88
1014.12 1014.24 1014.36 1014.48 1014.60 1014.76 1014.92 1015.12 1015.40 1015.80 1016.12 1016.40 1016.64 1016.88 1017.12 1017.28 1017.36 1017.40 1017.52 1017.68 1017.88 1018.00 1017.96 1017.80 1017.68 1017.60 1017.56 1017.64 1017.68 1017.60 1017.48 1017.40 1017.52 1017.88 1018.36 1018.80 1019.00 1019.00 1018.92 1018.92 1018.96 1019.04 1019.04 1019.08 1019.12 1019.12 1019.12 1019.12 1019.16 1019.20 1019.24 1019.28 1019.40 1019.44 1019.52 1019.60 1019.68 1019.72 1019.76 1019.80 1019.80 1019.84 1019.88 1019.88 1019.92 1019.92 1019.92 1019.92 1019.92
1014.24 1014.36 1014.48 1014.60 1014.76 1014.92 1015.12 1015.36 1015.64 1015.96 1016.24 1016.52 1016.84 1017.12 1017.28 1017.36 1017.40 1017.48 1017.64 1017.76 1017.92 1017.96 1017.96 1017.96 1017.88 1017.80 1017.80 1017.80 1017.80 1017.76 1017.72 1017.80 1018.08 1018.40 1018.68 1018.96 1019.08 1019.08 1019.04 1019.08 1019.12 1019.12 1019.12 1019.12 1019.16 1019.20 1019.24 1019.24 1019.24 1019.24 1019.28 1019.36 1019.44 1019.52 1019.56 1019.64 1019.68 1019.76 1019.80 1019.80 1019.84 1019.88 1019.92 1019.92 1019.96 1019.96 1019.96 1019.96 1019.96
1014.40 1014.52 1014.64 1014.80 1014.96 1015.12 1015.32 1015.52 1015.80 1016.12 1016.48 1016.80 1017.04 1017.24 1017.36 1017.40 1017.48 1017.56 1017.68 1017.84 1017.96 1018.00 1018.08 1018.16 1018.12 1018.08 1018.00 1018.00 1018.04 1018.08 1018.16 1018.28 1018.52 1018.68 1018.88 1019.00 1019.04 1019.04 1019.08 1019.12 1019.12 1019.12 1019.16 1019.20 1019.24 1019.28 1019.32 1019.32 1019.32 1019.36 1019.40 1019.48 1019.52 1019.56 1019.60 1019.64 1019.72 1019.76 1019.80 1019.80 1019.88 1019.92 1019.96 1019.96 1019.96 1019.96 1020.00 1019.96 1019.96
1014.64 1014.68 1014.80 1014.96 1015.12 1015.32 1015.52 1015.80 1016.08 1016.40 1016.64 1016.84 1017.04 1017.24 1017.36 1017.44 1017.56 1017.68 1017.84 1017.96 1018.04 1018.08 1018.20 1018.32 1018.36 1018.28 1018.24 1018.24 1018.28 1018.40 1018.52 1018.60 1018.68 1018.84 1018.96 1019.00 1019.04 1019.04 1019.08 1019.12 1019.16 1019.24 1019.28 1019.36 1019.40 1019.40 1019.44 1019.48 1019.48 1019.52 1019.52 1019.56 1019.60 1019.64 1019.68 1019.72 1019.76 1019.80 1019.80 1019.80 1019.88 1019.92 1019.96 1019.96 1019.96 1020.00 1020.00 1020.00 1020.00
1014.84 1014.88 1014.92 1015.04 1015.24 1015.52 1015.80 1016.08 1016.36 1016.64 1016.80 1017.00 1017.12 1017.24 1017.40 1017.52 1017.68 1017.92 1018.08 1018.16 1018.12 1018.12 1018.20 1018.36 1018.40 1018.40 1018.40 1018.52 1018.52 1018.60 1018.68 1018.76 1018.80 1018.88 1018.96 1018.96 1019.00 1019.04 1019.12 1019.20 1019.28 1019.36 1019.44 1019.52 1019.52 1019.56 1019.60 1019.64 1019.64 1019.64 1019.64 1019.64 1019.68 1019.72 1019.76 1019.80 1019.80 1019.84 1019.84 1019.88 1019.92 1019.96 1019.96 1019.96 1020.00 1020.00 1020.00 1020.00 1020.00
1014.96 1014.96 1015.04 1015.24 1015.44 1015.72 1016.04 1016.32 1016.60 1016.80 1017.00 1017.16 1017.28 1017.40 1017.52 1017.72 1017.92 1018.12 1018.28 1018.36 1018.24 1018.24 1018.28 1018.44 1018.48 1018.52 1018.56 1018.64 1018.68 1018.68 1018.72 1018.76 1018.80 1018.84 1018.92 1018.96 1019.04 1019.12 1019.24 1019.32 1019.40 1019.48 1019.52 1019.60 1019.68 1019.68 1019.68 1019.72 1019.72 1019.68 1019.68 1019.68 1019.72 1019.80 1019.80 1019.84 1019.88 1019.92 1019.92 1019.96 1019.96 1019.96 1019.96 1019.96 1020.00 1020.04 1020.04 1020.04 1020.00
1015.12 1015.24 1015.40 1015.60 1015.76 1015.96 1016.24 1016.52 1016.80 1017.00 1017.16 1017.36 1017.52 1017.68 1017.80 1018.00 1018.16 1018.28 1018.40 1018.40 1018.40 1018.40 1018.48 1018.56 1018.68 1018.68 1018.68 1018.68 1018.68 1018.68 1018.68 1018.72 1018.80 1018.92 1019.00 1019.12 1019.20 1019.24 1019.40 1019.52 1019.52 1019.60 1019.68 1019.72 1019.76 1019.80 1019.80 1019.80 1019.76 1019.72 1019.72 1019.72 1019.76 1019.80 1019.84 1019.92 1019.96 1019.96 1020.00 1020.04 1020.04 1020.04 1020.04 1020.04 1020.04 1020.04 1020.00 1020.00 1019.96
1015.40 1015.60 1015.76 1015.96 1016.08 1016.28 1016.52 1016.72 1016.96 1017.20 1017.40 1017.64 1017.80 1017.96 1018.12 1018.28 1018.40 1018.48 1018.52 1018.56 1018.56 1018.60 1018.68 1018.72 1018.72 1018.68 1018.68 1018.68 1018.68 1018.68 1018.68 1018.80 1018.92 1019.04 1019.12 1019.24 1019.32 1019.40 1019.52 1019.64 1019.68 1019.76 1019.80 1019.80 1019.84 1019.80 1019.80 1019.68 1019.68 1019.68 1019.68 1019.68 1019.76 1019.80 1019.88 1019.96 1020.00 1020.04 1020.08 1020.08 1020.12 1020.08 1020.08 1020.04 1020.00 1020.00 1020.00 1019.96 1019.96
1015.76 1015.96 1016.08 1016.24 1016.40 1016.56 1016.76 1016.96 1017.24 1017.48 1017.72 1017.92 1018.08 1018.24 1018.40 1018.52 1018.64 1018.68 1018.72 1018.76 1018.80 1018.80 1018.80 1018.80 1018.80 1018.76 1018.72 1018.72 1018.76 1018.80 1018.84 1018.96 1019.04 1019.16 1019.28 1019.40 1019.44 1019.52 1019.64 1019.68 1019.80 1019.84 1019.92 1019.92 1019.80 1019.68 1019.60 1019.52 1019.48 1019.48 1019.52 1019.56 1019.68 1019.80 1019.92 1019.96 1020.04 1020.08 1020.12 1020.16 1020.12 1020.08 1020.04 1020.00 1019.96 1019.96 1019.96 1019.96 1019.96
1016.08 1016.24 1016.40 1016.52 1016.68 1016.88 1017.12 1017.32 1017.52 1017.76 1017.96 1018.16 1018.36 1018.52 1018.68 1018.76 1018.80 1018.80 1018.88 1018.88 1018.92 1018.92 1018.92 1018.88 1018.88 1018.84 1018.84 1018.88 1018.92 1018.96 1019.08 1019.12 1019.20 1019.32 1019.40 1019.52 1019.60 1019.68 1019.76 1019.80 1019.88 1019.92 1019.92 1019.84 1019.72 1019.60 1019.48 1019.40 1019.36 1019.32 1019.40 1019.52 1019.68 1019.76 1019.88 1020.00 1020.04 1020.08 1020.16 1020.16 1020.12 1020.08 1020.08 1020.00 1019.96 1019.92 1019.92 1019.88 1019.84
1016.40 1016.56 1016.72 1016.88 1017.04 1017.24 1017.44 1017.64 1017.80 1018.04 1018.24 1018.36 1018.52 1018.68 1018.72 1018.80 1018.80 1018.84 1018.92 1018.96 1019.00 1019.04 1019.04 1019.00 1019.00 1018.96 1018.96 1018.96 1019.08 1019.12 1019.20 1019.28 1019.40 1019.44 1019.52 1019.64 1019.76 1019.80 1019.88 1019.96 1019.96 1019.96 1019.88 1019.72 1019.60 1019.52 1019.44 1019.40 1019.32 1019.32 1019.40 1019.56 1019.68 1019.80 1019.92 1020.04 1020.08 1020.12 1020.16 1020.12 1020.08 1020.08 1020.08 1020.04 1019.96 1019.92 1019.88 1019.80 1019.80
1016.68 1016.88 1017.04 1017.20 1017.40 1017.56 1017.72 1017.88 1018.08 1018.24 1018.40 1018.52 1018.60 1018.68 1018.72 1018.68 1018.72 1018.80 1018.84 1018.92 1018.96 1019.04 1019.04 1019.12 1019.12 1019.08 1019.12 1019.16 1019.24 1019.28 1019.40 1019.48 1019.52 1019.60 1019.68 1019.80 1019.80 1019.84 1019.88 1019.92 1019.92 1019.88 1019.80 1019.68 1019.52 1019.48 1019.40 1019.36 1019.36 1019.36 1019.40 1019.52 1019.68 1019.80 1019.96 1020.04 1020.08 1020.12 1020.12 1020.08 1020.08 1020.04 1020.00 1019.96 1019.92 1019.88 1019.80 1019.80 1019.76
1016.88 1017.08 1017.24 1017.44 1017.60 1017.76 1017.92 1018.04 1018.16 1018.28 1018.40 1018.52 1018.52 1018.56 1018.60 1018.60 1018.68 1018.72 1018.80 1018.84 1018.88 1018.96 1019.04 1019.12 1019.16 1019.24 1019.32 1019.40 1019.44 1019.52 1019.52 1019.56 1019.60 1019.68 1019.72 1019.80 1019.80 1019.84 1019.84 1019.80 1019.80 1019.80 1019.72 1019.60 1019.52 1019.48 1019.40 1019.40 1019.40 1019.40 1019.40 1019.52 1019.72 1019.84 1019.92 1019.96 1020.00 1020.04 1020.08 1020.08 1020.04 1020.00 1019.96 1019.92 1019.88 1019.84 1019.80 1019.80 1019.72
1016.96 1017.16 1017.36 1017.52 1017.68 1017.84 1017.96 1018.04 1018.08 1018.16 1018.24 1018.36 1018.40 1018.44 1018.48 1018.52 1018.56 1018.64 1018.72 1018.80 1018.88 1018.96 1019.04 1019.12 1019.24 1019.32 1019.40 1019.48 1019.52 1019.52 1019.56 1019.56 1019.56 1019.60 1019.68 1019.68 1019.68 1019.72 1019.76 1019.76 1019.72 1019.68 1019.68 1019.60 1019.52 1019.48 1019.40 1019.40 1019.40 1019.44 1019.48 1019.52 1019.68 1019.80 1019.88 1019.96 1020.04 1020.08 1020.08 1020.04 1020.00 1019.96 1019.92 1019.88 1019.84 1019.80 1019.80 1019.80 1019.72
1017.00 1017.16 1017.36 1017.52 1017.68 1017.80 1017.84 1017.92 1017.92 1017.96 1018.04 1018.16 1018.24 1018.36 1018.40 1018.48 1018.52 1018.60 1018.68 1018.76 1018.88 1018.96 1019.08 1019.20 1019.28 1019.36 1019.40 1019.40 1019.40 1019.44 1019.48 1019.48 1019.48 1019.48 1019.52 1019.56 1019.56 1019.60 1019.64 1019.68 1019.68 1019.72 1019.68 1019.60 1019.52 1019.48 1019.40 1019.40 1019.44 1019.44 1019.48 1019.56 1019.76 1019.88 1019.96 1020.08 1020.12 1020.12 1020.08 1020.08 1020.00 1019.96 1019.88 1019.84 1019.80 1019.80 1019.80 1019.80 1019.76
1017.00 1017.12 1017.24 1017.44 1017.56 1017.68 1017.76 1017.80 1017.80 1017.88 1017.96 1018.08 1018.16 1018.24 1018.32 1018.40 1018.48 1018.52 1018.60 1018.72 1018.84 1018.96 1019.12 1019.20 1019.24 1019.28 1019.32 1019.32 1019.32 1019.36 1019.36 1019.40 1019.40 1019.40 1019.44 1019.48 1019.56 1019.60 1019.64 1019.64 1019.68 1019.72 1019.68 1019.60 1019.52 1019.48 1019.40 1019.40 1019.44 1019.44 1019.52 1019.68 1019.80 1019.96 1020.08 1020.12 1020.12 1020.12 1020.08 1020.08 1020.00 1019.96 1019.88 1019.84 1019.80 1019.80 1019.80 1019.80 1019.80
1016.96 1017.08 1017.20 1017.32 1017.52 1017.64 1017.68 1017.76 1017.80 1017.88 1017.96 1018.04 1018.08 1018.16 1018.24 1018.36 1018.44 1018.52 1018.60 1018.68 1018.80 1018.96 1019.04 1019.08 1019.12 1019.16 1019.20 1019.24 1019.24 1019.28 1019.32 1019.36 1019.36 1019.36 1019.40 1019.40 1019.48 1019.52 1019.60 1019.68 1019.68 1019.72 1019.68 1019.56 1019.48 1019.44 1019.40 1019.40 1019.44 1019.44 1019.52 1019.68 1019.88 1020.04 1020.08 1020.08 1020.08 1020.12 1020.12 1020.08 1020.00 1019.96 1019.96 1019.92 1019.84 1019.80 1019.80 1019.80 1019.80
1016.96 1017.04 1017.16 1017.28 1017.40 1017.52 1017.60 1017.68 1017.76 1017.84 1017.92 1018.00 1018.08 1018.12 1018.20 1018.32 1018.40 1018.52 1018.60 1018.68 1018.76 1018.84 1018.92 1018.96 1019.00 1019.04 1019.08 1019.12 1019.16 1019.20 1019.24 1019.28 1019.28 1019.36 1019.40 1019.40 1019.48 1019.52 1019.56 1019.64 1019.68 1019.68 1019.64 1019.52 1019.44 1019.40 1019.40 1019.40 1019.40 1019.48 1019.52 1019.68 1019.88 1020.00 1020.04 1020.08 1020.08 1020.08 1020.12 1020.08 1020.00 1019.96 1019.96 1019.92 1019.88 1019.84 1019.84 1019.80 1019.80
1016.96 1017.08 1017.20 1017.28 1017.40 1017.48 1017.52 1017.64 1017.72 1017.80 1017.88 1017.96 1018.04 1018.08 1018.20 1018.28 1018.36 1018.44 1018.52 1018.60 1018.68 1018.72 1018.80 1018.88 1018.88 1018.96 1018.96 1019.04 1019.08 1019.12 1019.20 1019.24 1019.32 1019.36 1019.40 1019.44 1019.48 1019.52 1019.52 1019.60 1019.64 1019.64 1019.56 1019.48 1019.40 1019.40 1019.40 1019.40 1019.44 1019.48 1019.60 1019.76 1019.92 1020.00 1020.08 1020.08 1020.12 1020.12 1020.08 1020.08 1020.00 1019.96 1019.96 1019.92 1019.88 1019.88 1019.88 1019.88 1019.84
1016.96 1017.08 1017.20 1017.28 1017.40 1017.48 1017.56 1017.64 1017.72 1017.80 1017.84 1017.92 1018.00 1018.08 1018.16 1018.24 1018.28 1018.36 1018.40 1018.48 1018.56 1018.68 1018.76 1018.80 1018.88 1018.96 1018.96 1019.04 1019.08 1019.08 1019.12 1019.24 1019.32 1019.40 1019.40 1019.44 1019.48 1019.52 1019.52 1019.56 1019.60 1019.60 1019.56 1019.52 1019.44 1019.40 1019.40 1019.44 1019.40 1019.48 1019.60 1019.80 1019.96 1020.04 1020.08 1020.12 1020.16 1020.12 1020.08 1020.08 1020.00 1019.96 1019.96 1019.92 1019.88 1019.88 1019.88 1019.88 1019.88
1017.04 1017.12 1017.24 1017.32 1017.40 1017.48 1017.52 1017.64 1017.68 1017.72 1017.80 1017.84 1017.96 1018.04 1018.08 1018.20 1018.24 1018.28 1018.36 1018.44 1018.52 1018.68 1018.72 1018.76 1018.84 1018.92 1018.96 1019.04 1019.12 1019.12 1019.20 1019.28 1019.32 1019.36 1019.40 1019.40 1019.44 1019.52 1019.52 1019.56 1019.60 1019.60 1019.60 1019.52 1019.48 1019.40 1019.40 1019.40 1019.40 1019.44 1019.60 1019.84 1019.96 1020.00 1020.08 1020.12 1020.16 1020.12 1020.08 1020.08 1020.00 1019.96 1019.96 1019.92 1019.92 1019.88 1019.88 1019.88 1019.88
1017.12 1017.16 1017.24 1017.28 1017.40 1017.44 1017.52 1017.56 1017.64 1017.68 1017.72 1017.80 1017.88 1018.00 1018.08 1018.12 1018.24 1018.28 1018.32 1018.40 1018.48 1018.60 1018.68 1018.76 1018.80 1018.88 1018.96 1019.00 1019.12 1019.16 1019.24 1019.24 1019.24 1019.24 1019.32 1019.36 1019.40 1019.48 1019.52 1019.56 1019.60 1019.60 1019.60 1019.56 1019.48 1019.40 1019.36 1019.36 1019.40 1019.40 1019.52 1019.80 1019.92 1019.96 1020.00 1020.08 1020.08 1020.08 1020.08 1020.00 1019.96 1019.96 1019.96 1019.92 1019.92 1019.88 1019.88 1019.80 1019.80
1017.12 1017.12 1017.16 1017.24 1017.32 1017.40 1017.44 1017.52 1017.56 1017.60 1017.64 1017.76 1017.84 1017.96 1018.04 1018.12 1018.20 1018.24 1018.28 1018.28 1018.36 1018.48 1018.60 1018.68 1018.76 1018.80 1018.84 1018.96 1019.04 1019.12 1019.20 1019.20 1019.20 1019.24 1019.28 1019.36 1019.40 1019.40 1019.48 1019.52 1019.56 1019.56 1019.56 1019.52 1019.48 1019.40 1019.36 1019.36 1019.36 1019.36 1019.44 1019.68 1019.80 1019.84 1019.92 1019.96 1020.04 1020.04 1020.00 1020.00 1019.96 1019.96 1019.96 1019.96 1019.92 1019.88 1019.84 1019.80 1019.76
1017.04 1017.08 1017.12 1017.16 1017.24 1017.36 1017.40 1017.48 1017.52 1017.52 1017.56 1017.64 1017.76 1017.84 1017.96 1018.04 1018.12 1018.16 1018.24 1018.24 1018.32 1018.40 1018.48 1018.56 1018.68 1018.72 1018.76 1018.84 1018.96 1019.08 1019.16 1019.20 1019.24 1019.24 1019.28 1019.36 1019.40 1019.40 1019.40 1019.48 1019.52 1019.52 1019.52 1019.48 1019.48 1019.44 1019.40 1019.36 1019.36 1019.36 1019.40 1019.60 1019.68 1019.76 1019.80 1019.88 1019.96 1020.00 1020.00 1019.96 1020.00 1019.96 1019.92 1019.88 1019.88 1019.88 1019.84 1019.80 1019.76
1017.04 1017.04 1017.12 1017.12 1017.20 1017.24 1017.32 1017.40 1017.44 1017.48 1017.52 1017.56 1017.60 1017.68 1017.76 1017.84 1017.96 1018.08 1018.20 1018.24 1018.28 1018.32 1018.40 1018.48 1018.56 1018.68 1018.72 1018.80 1018.88 1018.96 1019.12 1019.16 1019.24 1019.32 1019.36 1019.40 1019.40 1019.40 1019.40 1019.40 1019.48 1019.48 1019.48 1019.48 1019.48 1019.48 1019.40 1019.40 1019.36 1019.32 1019.36 1019.44 1019.60 1019.68 1019.76 1019.80 1019.92 1019.96 1020.00 1019.96 1019.96 1019.96 1019.92 1019.88 1019.84 1019.84 1019.80 1019.80 1019.76
Wind_Speed
4 5 5 4 4 4 4 3 2 2 2 4 5 5 4 4 3 2 2 2 3 4 4 4 3 4 5 6 7 8 9 8 8 9 9 9 9 8 8 7 7 7 7 7 6 6 5 5 4 3 3 3 3 3 2 2 3 3 3 3 3 3 3 3 3 3 3 2 2
6 6 5 5 4 4 4 3 2 2 3 4 5 5 5 5 4 2 2 2 3 4 4 4 4 4 5 6 7 7 8 8 8 8 8 8 7 7 7 6 6 7 7 7 6 5 5 5 4 4 3 3 3 3 2 1 2 3 3 3 2 2 2 2 2 1 1 1 2
6 5 5 5 5 5 4 2 1 2 4 6 5 5 5 5 3 3 2 2 4 4 4 4 4 4 5 6 5 6 6 7 7 7 6 6 6 5 5 5 5 5 5 6 5 5 5 5 4 4 4 3 3 3 2 1 2 3 3 3 2 2 1 1 1 1 1 1 1
6 6 6 6 7 6 4 1 1 2 3 3 3 3 4 3 3 3 3 3 4 4 4 4 4 4 5 5 5 5 5 6 7 7 6 5 5 5 5 5 5 4 4 4 5 5 5 5 4 3 3 4 4 4 3 2 2 2 3 2 2 2 2 2 1 1 1 1 0
7 7 7 7 8 6 3 3 3 3 3 2 2 3 3 3 4 4 4 4 4 3 3 4 4 4 4 5 6 6 6 6 7 6 6 6 5 5 5 5 5 4 4 4 4 5 5 5 4 3 3 4 4 3 3 3 3 3 2 2 2 2 2 2 2 1 1 1 0
5 5 5 5 6 4 2 5 6 6 5 4 3 3 3 3 4 5 5 5 4 4 4 5 5 5 5 5 6 6 6 6 6 6 6 6 5 5 5 6 6 5 5 5 5 5 5 5 4 4 4 4 4 4 4 4 4 3 3 2 2 2 2 2 2 2 2 2 1
1 1 1 1 2 3 5 7 7 6 6 5 5 5 5 5 6 6 6 5 4 4 4 4 5 5 5 5 5 6 6 5 5 6 6 5 5 5 6 6 6 6 6 6 5 5 5 5 4 4 3 4 4 4 4 4 4 3 3 3 2 2 2 2 2 2 2 2 2
4 4 4 4 5 6 8 8 7 7 7 6 6 6 7 7 8 7 6 4 3 3 3 3 5 5 6 5 6 6 6 6 6 5 5 6 6 6 7 7 7 7 6 6 5 5 4 4 4 3 3 3 3 3 3 4 4 4 3 3 2 2 2 2 1 1 1 2 3
4 4 5 6 7 7 8 8 7 7 7 7 7 7 7 7 8 7 5 3 3 3 3 3 5 6 6 6 6 6 6 6 6 6 5 6 6 7 7 7 7 6 6 5 5 5 5 4 4 4 3 3 3 3 3 4 4 4 4 3 2 2 1 1 1 1 1 2 4
4 5 5 6 7 8 8 8 7 7 8 8 7 6 6 6 7 6 5 3 4 4 4 4 5 6 7 7 6 6 6 6 6 6 6 6 7 7 6 6 6 6 5 4 4 4 4 4 4 4 4 4 4 4 4 4 4 4 3 2 2 2 2 1 1 2 2 3 4
5 5 5 6 7 8 9 9 8 7 7 7 7 6 5 5 5 5 5 4 5 5 5 5 6 7 7 7 6 6 6 6 6 6 6 6 7 6 6 6 6 5 5 4 3 3 4 4 5 5 5 4 4 4 4 4 4 4 3 2 2 2 2 2 2 2 2 3 4
6 6 6 6 7 9 9 9 7 7 8 8 7 6 5 4 5 5 6 6 6 5 4 4 5 6 7 6 6 6 6 6 6 7 7 6 6 6 6 6 5 5 5 3 3 3 4 4 5 5 5 4 4 3 3 3 4 4 3 3 3 4 4 3 2 2 2 2 3
7 7 7 7 9 10 10 9 8 8 8 8 7 6 5 4 5 6 7 8 7 5 4 3 4 5 6 6 6 6 6 6 7 6 6 6 6 6 6 5 5 5 4 4 3 4 4 5 5 6 5 5 4 3 4 4 4 4 5 5 5 5 5 4 3 3 3 3 3
8 8 8 8 9 10 10 9 8 8 8 9 7 6 5 5 5 6 7 8 7 5 4 3 3 4 5 6 6 6 7 7 7 7 7 5 5 5 6 5 5 5 4 3 4 4 5 5 5 5 5 5 4 4 4 4 4 4 4 5 5 5 4 4 4 3 3 3 4
8 9 9 9 9 9 9 9 8 8 8 8 7 6 5 5 5 6 6 7 6 5 3 3 3 4 5 5 6 6 7 8 8 8 7 6 5 5 6 5 5 4 4 3 3 4 5 5 5 5 5 5 4 4 4 4 4 4 3 3 4 4 4 4 4 3 3 4 4
9 9 9 9 9 9 9 8 8 8 8 7 6 6 5 4 4 5 6 6 5 4 3 3 4 4 5 6 5 5 6 8 9 9 8 6 5 5 5 5 4 3 3 3 3 4 4 4 4 4 4 4 4 4 4 4 3 3 3 3 3 4 4 4 4 4 4 4 4
9 9 9 9 9 9 9 9 8 7 7 7 7 6 5 4 4 5 5 6 4 4 3 4 4 4 5 5 5 5 6 8 9 9 8 6 5 4 4 4 3 3 3 3 4 4 4 4 4 4 4 4 4 3 3 3 3 3 3 3 3 3 3 4 4 4 4 4 4
8 8 9 9 9 10 10 9 9 8 8 8 7 6 5 4 5 5 5 5 4 4 4 4 4 4 5 5 5 5 6 7 7 7 6 5 4 4 3 3 3 3 3 4 4 4 4 4 4 4 4 4 3 3 2 2 2 2 2 2 3 3 3 3 3 3 3 3 4
7 8 9 9 9 10 10 10 9 9 8 7 7 6 5 5 5 5 5 4 4 5 5 4 4 4 5 5 5 5 5 6 6 5 4 3 3 3 3 3 3 3 4 4 4 4 4 4 4 4 4 3 3 2 2 2 2 2 2 2 2 3 3 3 3 3 3 3 3
7 8 8 9 9 10 10 10 9 9 8 7 7 6 6 6 6 6 5 4 4 4 4 4 4 4 5 6 6 5 4 4 4 4 4 3 3 3 3 3 3 4 4 4 4 4 4 4 4 4 3 3 3 3 3 3 2 2 2 2 2 2 2 3 3 2 2 3 3
7 7 8 9 9 9 9 9 9 8 8 7 7 7 7 6 6 6 5 4 4 4 5 4 4 5 5 5 5 4 3 3 3 4 4 4 4 4 4 3 4 4 4 3 3 3 3 3 3 3 3 3 2 2 2 2 2 2 2 2 2 2 2 2 2 2 2 3 3
7 7 8 9 9 9 9 9 8 8 7 7 7 7 7 6 6 5 4 3 3 4 5 4 4 4 4 4 4 4 3 3 3 3 4 4 4 4 4 3 3 3 3 3 3 3 3 2 2 2 1 1 1 1 1 2 2 2 2 3 3 3 3 2 2 2 2 3 3
7 7 8 8 8 9 9 9 8 8 7 7 7 6 6 5 4 4 3 3 3 4 4 3 3 3 4 4 4 4 4 4 4 4 4 4 4 4 4 3 3 3 3 3 2 2 1 1 0 0 1 1 1 1 1 1 1 2 2 3 3 3 3 3 2 2 2 3 3
7 7 6 6 8 8 9 8 8 8 7 7 6 6 5 5 4 3 3 3 3 3 3 2 2 3 3 3 4 4 4 5 4 4 4 4 3 3 3 3 3 2 2 1 1 0 1 1 1 2 2 2 2 2 1 1 1 1 2 3 3 3 3 3 2 2 2 3 3
7 7 7 7 8 8 8 8 8 7 7 6 6 5 5 4 3 3 3 3 3 3 3 3 2 3 3 4 4 4 4 4 4 4 4 4 3 3 3 2 2 1 0 1 1 2 2 1 1 2 2 3 3 2 2 1 1 1 1 2 3 3 3 3 3 3 2 3 3
7 7 7 7 8 8 8 8 7 7 7 6 6 5 5 4 3 3 3 3 3 3 3 3 3 3 3 4 4 4 4 4 4 4 4 4 3 3 2 1 1 0 1 2 2 2 2 3 3 1 1 3 2 2 1 1 1 1 1 2 2 3 3 4 4 3 3 3 3
8 8 7 7 8 8 8 7 7 7 7 6 6 5 5 5 4 4 4 3 3 2 2 3 3 3 3 3 4 4 4 3 3 4 3 3 2 2 1 0 0 1 1 1 2 3 3 4 5 4 2 3 3 2 2 1 1 1 1 2 2 2 3 4 4 4 4 3 3
8 8 8 8 8 8 8 7 7 7 7 6 6 6 5 5 5 5 4 4 3 3 2 2 2 2 3 3 4 4 3 3 2 2 2 2 2 2 1 1 1 1 1 2 3 4 4 4 5 5 3 3 3 3 2 1 1 1 1 2 2 3 3 3 4 4 4 4 3
9 9 9 9 9 8 8 8 8 8 8 7 7 6 6 5 5 5 4 4 3 3 2 2 2 2 2 3 2 2 2 2 2 2 2 2 2 1 1 1 1 1 2 3 3 3 4 4 5 5 4 3 3 3 2 2 2 1 1 2 2 3 3 3 3 3 3 4 3
10 10 10 10 9 9 8 8 9 9 8 7 6 6 5 5 5 5 4 4 3 2 2 2 2 2 2 2 2 2 2 2 2 3 2 2 1 1 1 1 1 1 2 3 3 3 4 4 5 5 4 3 3 3 2 2 1 1 1 2 2 3 3 4 4 4 3 3 3
9 9 9 9 9 8 8 7 8 8 7 6 6 6 5 5 5 4 4 3 3 3 3 3 3 3 3 3 3 3 3 2 2 2 2 2 1 1 1 1 1 2 2 3 3 3 4 4 4 4 4 5 4 3 2 1 1 1 1 2 3 4 4 4 4 3 3 3 3
8 8 9 9 8 8 7 6 6 6 6 7 6 6 5 5 4 4 3 3 3 3 3 3 3 3 3 3 3 2 2 2 2 2 2 2 1 0 0 1 1 1 2 3 3 3 4 4 5 4 5 6 4 3 2 2 1 1 2 3 4 4 4 4 3 3 3 2 2
7 8 8 8 8 7 6 5 5 5 5 6 6 6 5 5 4 4 3 3 3 3 3 3 3 3 3 3 3 2 2 2 2 2 2 2 2 1 0 0 1 1 2 3 3 3 4 5 5 5 5 6 4 3 2 2 1 1 2 3 3 4 4 4 3 3 3 2 2
6 7 7 7 7 6 6 6 5 5 5 5 5 5 5 5 4 4 3 3 3 3 3 3 3 3 3 3 3 3 3 3 2 2 2 2 2 1 1 0 1 1 2 3 3 4 4 4 5 4 4 5 4 3 2 2 1 1 2 3 3 3 3 3 3 3 3 2 2
6 6 6 6 6 6 6 6 5 5 5 5 5 5 4 4 4 4 4 3 3 2 2 2 2 2 2 2 2 3 3 3 3 2 2 2 2 1 0 1 1 2 3 3 3 4 4 4 4 3 4 5 3 2 2 1 1 1 1 2 3 3 3 2 2 2 2 2 2
5 6 6 6 6 5 5 5 5 5 5 5 5 4 4 4 3 3 3 3 3 3 3 3 2 2 2 2 2 2 3 3 3 2 2 1 1 0 1 2 2 2 3 4 4 4 4 4 4 3 3 4 3 2 1 1 0 0 1 2 2 3 3 2 2 2 2 2 2
4 5 6 6 6 5 5 5 5 5 5 5 4 4 4 3 3 3 3 3 3 3 3 3 3 3 3 3 2 2 3 3 3 2 2 1 1 1 1 2 2 2 3 4 4 4 4 4 5 3 3 4 2 1 1 1 0 0 1 2 2 2 2 2 2 2 2 2 3
4 5 5 6 5 5 5 5 5 5 5 5 4 4 4 3 3 3 3 3 3 3 3 3 3 3 3 3 3 3 3 3 3 3 3 2 2 2 1 1 2 2 2 3 4 4 4 4 5 4 2 3 2 2 1 1 0 0 1 1 2 2 2 2 2 2 2 2 3
3 4 5 5 5 5 5 5 5 6 6 5 5 4 4 3 3 3 3 3 3 3 3 3 3 3 3 4 3 3 3 3 3 3 3 2 2 2 2 1 1 2 2 3 4 4 4 4 5 4 2 3 3 2 2 1 1 0 1 1 2 2 2 2 2 2 2 3 4
3 4 4 5 5 5 5 5 5 5 5 5 5 5 5 4 3 3 3 3 3 3 4 4 4 4 4 4 4 4 3 3 3 2 2 2 2 2 2 2 1 2 2 3 4 4 5 4 5 5 4 1 2 3 2 2 1 0 1 1 1 2 2 2 2 2 2 3 3
2 2 3 4 4 5 5 5 4 4 4 4 5 5 5 5 4 3 3 3 3 3 3 3 4 4 4 4 4 4 4 3 2 2 2 1 1 1 1 1 1 1 2 3 4 4 5 5 5 6 5 1 2 3 2 2 1 1 1 2 1 1 2 2 2 2 2 2 2
Wind_Direction
233 236 237 234 232 232 236 243 265 267 240 221 216 212 207 193 168 141 121 118 121 120 118 117 126 129 129 128 126 126 126 126 125 125 125 126 127 128 128 127 125 124 123 123 122 121 120 121 119 119 120 125 128 128 127 129 141 144 147 149 156 165 177 193 207 220 230 243 251
231 235 238 239 237 235 236 244 264 250 228 222 220 217 212 208 200 176 128 119 120 117 117 122 130 131 130 130 128 127 127 127 125 123 121 122 124 125 126 126 126 127 127 127 127 126 127 127 124 123 125 128 125 121 116 111 127 130 131 134 141 154 171 191 201 213 234 263 281
226 228 231 235 235 233 231 228 233 219 217 220 221 217 213 213 191 159 133 130 117 116 121 132 135 132 128 127 124 122 122 122 119 115 113 113 114 114 115 116 117 119 121 124 126 128 129 129 125 124 125 126 119 114 108 97 102 106 108 106 106 111 121 138 104 70 50 9 323
221 222 225 230 235 234 229 101 124 170 190 192 187 192 193 175 139 129 127 118 109 113 124 138 135 130 125 122 117 113 111 111 110 108 105 103 102 101 102 102 101 101 104 109 114 118 119 117 112 110 110 108 102 97 91 81 76 80 85 88 89 93 97 101 86 79 77 80 34
220 220 221 222 230 228 214 73 82 87 94 103 122 128 125 115 116 117 115 108 109 120 135 139 132 124 118 115 112 108 104 102 103 103 101 98 94 92 91 90 90 89 87 86 92 97 98 96 92 89 89 90 87 84 78 71 68 69 70 69 67 71 77 80 77 79 80 78 67
227 223 219 215 221 209 145 86 85 81 76 71 92 97 94 93 106 112 115 115 125 140 148 138 127 119 113 109 106 104 101 97 97 99 100 99 94 90 87 85 84 81 77 74 75 77 80 83 83 83 84 87 87 85 80 74 73 72 70 63 56 58 62 62 56 50 41 27 359
212 160 139 143 167 134 110 100 98 95 91 82 86 90 95 100 107 112 116 122 137 149 149 135 126 121 116 110 104 99 96 92 90 92 94 96 92 89 86 83 79 75 73 71 70 70 72 77 83 83 81 82 83 79 75 73 77 76 74 69 64 64 64 60 49 33 13 351 330
84 83 84 88 96 101 103 104 102 101 100 99 98 103 109 113 113 113 114 120 135 141 135 124 120 118 115 109 103 99 95 93 90 89 89 93 91 87 84 81 76 72 69 68 71 73 74 75 78 76 72 69 73 73 70 68 73 75 75 76 82 84 83 80 66 30 348 325 313
95 93 91 90 94 98 101 100 100 101 103 104 109 114 118 119 116 115 116 123 127 123 115 112 112 110 106 103 102 100 98 98 96 93 91 92 90 87 83 79 76 71 65 59 64 69 73 74 72 70 66 65 68 68 65 61 65 67 69 71 70 76 84 90 66 10 337 324 318
103 102 98 95 98 101 101 97 95 97 99 100 101 103 106 110 112 115 121 129 121 113 109 112 112 109 106 104 103 103 102 101 100 97 93 88 85 83 80 77 76 72 65 53 55 61 67 72 73 70 68 66 69 68 63 60 62 63 62 60 48 44 50 72 48 11 353 341 330
96 100 102 104 107 105 101 96 92 90 90 88 83 80 83 93 106 115 120 119 112 110 114 123 122 118 114 111 109 108 107 105 103 98 92 86 82 80 78 78 78 76 70 58 55 60 66 71 74 73 71 70 73 71 66 61 62 57 51 40 27 19 21 38 43 24 2 344 328
92 97 101 106 106 102 99 97 94 90 86 82 77 74 73 81 97 104 105 100 99 103 113 127 125 122 119 115 113 111 108 105 101 97 92 88 85 84 83 83 83 81 79 71 67 70 74 75 76 74 72 70 73 68 59 51 46 37 26 13 9 6 3 5 13 8 352 334 320
97 100 100 100 98 97 97 99 97 92 87 82 78 75 73 70 77 84 87 87 89 92 97 106 111 113 113 113 113 110 106 100 95 90 87 87 87 87 86 83 83 83 82 77 75 77 80 79 76 73 70 65 62 55 46 37 31 23 14 4 1 358 354 350 349 344 335 326 320
104 103 101 99 98 98 99 101 97 92 87 83 80 76 72 67 69 76 83 87 88 88 84 78 78 85 93 102 105 104 101 96 90 85 80 75 78 80 80 78 78 80 81 78 78 80 82 81 79 76 70 63 54 46 39 34 28 19 10 0 354 349 346 342 339 335 329 323 319
107 105 104 102 101 102 102 101 97 93 90 88 85 81 77 74 78 84 88 89 87 83 77 68 62 62 66 74 86 94 98 98 94 88 80 70 67 69 72 74 73 74 77 80 80 82 83 84 83 79 73 65 54 45 37 33 26 17 6 356 348 343 339 336 335 332 327 322 319
109 108 107 106 105 103 101 98 96 95 96 96 93 91 90 91 92 92 91 90 87 81 73 66 64 61 58 57 66 81 92 95 92 88 82 74 67 65 69 73 72 72 76 80 78 77 78 80 81 79 74 68 56 45 35 30 20 10 358 348 342 337 333 331 330 328 325 320 317
113 111 109 107 105 102 100 96 97 99 101 101 101 102 106 110 104 98 95 96 98 93 78 62 62 64 64 59 56 63 71 75 78 81 84 85 83 81 79 79 78 77 76 76 71 66 62 59 62 65 67 64 56 46 35 25 14 1 349 340 334 329 326 324 323 322 320 317 313
113 110 107 105 104 102 101 100 101 102 103 103 105 108 112 113 106 101 97 96 100 96 86 69 61 63 66 63 53 53 60 67 73 80 89 98 101 100 96 92 89 80 73 69 66 61 55 48 47 51 55 57 54 47 38 22 6 351 340 331 327 322 319 317 316 315 314 311 308
108 106 104 104 104 103 102 102 103 104 106 108 109 108 104 97 95 92 88 82 84 87 88 81 68 64 64 64 59 58 63 74 84 91 97 106 104 100 96 92 83 72 66 62 61 57 52 45 43 43 45 44 40 35 28 16 359 345 334 327 322 317 312 309 307 304 302 299 298
102 102 103 103 102 101 101 101 104 107 109 110 106 100 92 84 81 81 81 81 83 87 90 88 80 72 68 67 68 69 73 84 97 103 106 104 94 85 79 73 63 58 54 54 52 49 45 39 38 38 38 35 27 19 10 359 347 337 330 324 317 309 304 300 296 290 285 283 286
97 98 98 98 98 98 98 99 101 102 102 99 96 92 86 79 78 79 82 87 90 91 91 89 87 84 82 80 82 84 88 95 102 104 101 91 80 73 67 64 58 54 50 49 49 47 43 38 36 37 39 36 25 11 356 340 331 327 324 321 313 305 297 290 284 279 277 276 279
91 90 91 93 95 96 97 97 97 95 92 87 84 81 79 76 77 79 81 80 80 83 86 89 92 96 100 103 104 105 102 93 88 84 81 76 72 67 63 60 60 58 54 51 49 44 40 35 34 37 42 44 23 351 329 316 316 319 322 321 316 310 301 289 278 273 271 271 274
87 86 88 91 95 97 98 97 95 91 87 83 78 76 76 75 75 76 75 71 76 82 88 96 103 111 116 118 116 110 99 83 71 63 60 63 66 64 60 57 61 62 61 59 57 52 41 21 12 184 184 183 194 221 260 288 303 315 320 321 317 311 303 291 279 273 271 272 272
90 90 91 94 97 98 99 97 95 92 89 87 85 84 83 84 82 79 75 74 84 92 100 105 108 109 108 102 96 91 88 84 77 68 60 57 62 62 61 59 64 68 72 80 93 160 211 223 211 203 196 189 185 183 188 226 278 302 309 310 308 305 300 294 288 284 281 282 278
97 98 99 100 101 101 100 100 99 98 98 98 98 97 98 100 100 94 86 79 80 86 92 94 91 89 85 79 72 69 72 81 84 81 73 62 61 61 59 58 62 71 111 187 225 241 257 288 257 210 190 179 171 166 167 186 230 262 279 289 297 302 306 308 306 302 294 287 283
106 107 107 108 107 107 106 107 108 109 110 111 112 113 116 120 117 108 97 86 78 74 75 80 79 80 80 79 73 67 63 64 72 77 78 72 64 59 56 56 62 164 222 227 255 300 336 348 343 346 148 154 151 151 155 183 218 242 259 274 290 302 309 313 311 308 302 292 289
116 117 118 117 116 116 117 119 119 120 122 125 128 132 137 140 131 122 113 108 102 91 80 73 69 72 75 75 74 70 65 59 65 72 81 86 84 80 72 53 248 247 256 292 6 8 1 357 358 13 57 138 138 141 150 181 223 246 261 273 285 294 299 302 303 304 304 302 300
128 129 128 125 125 127 129 129 128 131 135 139 143 146 147 142 134 130 128 130 127 115 96 77 64 59 58 57 60 64 67 71 77 88 101 117 128 145 168 200 219 247 296 356 19 15 5 360 8 19 44 121 128 136 147 166 207 239 260 276 284 289 291 293 296 301 304 308 309
135 135 134 133 135 137 138 138 140 143 145 148 148 145 141 134 132 133 137 140 132 117 101 85 72 66 64 65 69 75 87 107 126 136 141 141 142 155 186 212 226 270 324 360 17 13 4 3 15 15 21 75 120 141 158 172 196 226 261 281 288 292 293 294 296 300 303 308 314
138 138 138 139 140 143 146 148 148 148 148 147 142 136 130 127 132 139 143 142 129 114 100 94 93 93 98 109 127 139 152 168 170 160 146 125 93 53 315 270 281 305 327 351 3 4 1 6 16 14 18 61 112 132 148 158 173 225 286 298 298 298 296 295 295 295 298 305 316
139 139 140 140 142 145 148 151 148 146 143 140 138 136 134 136 142 147 147 138 125 114 108 103 108 119 135 156 164 164 163 166 164 151 134 110 74 24 325 299 302 308 318 335 351 358 1 8 11 17 36 69 91 99 98 95 70 357 321 310 304 302 300 297 293 290 291 298 311
138 139 139 139 141 143 144 143 140 139 138 140 141 142 143 145 148 148 143 132 125 122 122 121 129 141 154 166 162 154 148 146 146 141 133 121 116 108 302 311 309 304 310 326 350 1 5 10 8 22 47 75 85 89 87 84 53 358 324 309 305 303 301 299 292 287 283 281 290
134 135 136 137 140 141 140 137 135 136 139 143 145 145 144 145 144 143 140 136 134 137 141 146 151 156 159 161 153 147 144 147 149 148 144 140 142 144 148 329 311 306 315 333 355 4 8 10 8 25 55 84 94 103 106 97 63 358 326 311 306 303 300 296 292 286 279 269 266
131 133 134 136 140 142 143 142 141 141 141 143 143 143 143 143 143 144 145 144 143 145 149 153 159 160 158 155 152 152 154 155 151 146 141 136 137 136 131 320 295 308 322 341 358 5 6 5 4 26 62 92 101 106 104 90 59 355 325 310 307 306 305 303 298 292 284 273 263
131 133 135 138 141 144 146 145 144 142 141 140 139 140 141 142 143 145 145 142 137 134 136 144 150 151 150 151 154 156 154 149 142 134 125 119 121 120 331 306 295 309 326 344 357 3 2 359 356 22 68 97 100 99 97 87 62 339 314 307 307 310 313 316 312 304 294 282 267
132 136 138 141 144 146 146 145 144 142 140 139 140 142 143 143 142 142 140 135 127 126 129 137 142 145 147 152 152 145 138 134 132 127 121 117 122 147 276 290 290 309 327 342 350 355 356 355 348 13 69 100 97 94 94 96 84 314 306 304 306 310 313 316 315 309 300 288 270
131 136 140 144 148 150 150 148 148 147 146 145 147 149 151 148 146 143 140 134 129 131 136 140 144 148 150 149 138 131 129 136 141 147 154 168 174 193 228 268 286 304 322 333 339 344 348 351 339 358 61 107 108 106 102 98 97 323 307 304 302 302 303 305 306 303 297 287 270
134 137 142 149 153 156 157 157 156 155 154 152 151 153 154 154 154 155 153 147 141 143 146 148 152 156 156 149 138 135 137 145 150 154 159 168 167 170 184 237 275 290 305 322 331 336 340 346 331 339 26 129 138 141 136 125 120 297 297 296 297 296 296 295 297 297 293 285 277
145 145 148 154 158 161 164 167 167 164 160 157 154 155 159 163 165 167 166 158 152 151 154 158 164 165 162 154 144 139 137 134 133 134 137 140 147 155 164 188 253 273 289 312 325 330 333 336 324 327 338 149 156 158 156 143 147 258 283 287 296 300 299 297 296 296 294 290 291
150 150 153 158 162 167 172 177 177 173 166 161 160 162 166 170 168 165 163 158 153 152 156 162 167 168 163 154 144 138 132 121 108 105 110 119 137 152 159 168 228 263 285 308 320 324 324 322 317 320 324 160 154 153 151 139 142 236 276 277 289 299 303 302 300 298 298 297 302
131 146 156 164 168 174 179 184 184 181 175 170 166 165 164 160 154 152 152 154 153 155 157 162 164 163 158 151 143 139 134 125 109 99 98 104 120 135 143 154 217 266 290 308 315 316 314 313 314 317 319 322 134 138 140 135 143 228 260 262 265 279 292 301 304 303 303 302 305